Year,Month,Day,Hour,Minute,Value (Times are PST for temperature in C)
2023,04,25,00,02,7.30
2023,04,25,00,07,7.20
2023,04,25,00,12,7.20
2023,04,25,00,17,7.10
2023,04,25,00,22,7.10
2023,04,25,00,27,7.00
2023,04,25,00,32,6.90
2023,04,25,00,37,6.80
2023,04,25,00,42,6.70
2023,04,25,00,47,6.70
2023,04,25,00,52,6.40
2023,04,25,00,57,6.30
2023,04,25,01,02,6.30
2023,04,25,01,07,6.10
2023,04,25,01,12,6.00
2023,04,25,01,17,6.10
2023,04,25,01,22,6.10
2023,04,25,01,27,6.00
2023,04,25,01,32,6.00
2023,04,25,01,37,5.90
2023,04,25,01,42,5.80
2023,04,25,01,47,5.70
2023,04,25,01,52,5.60
2023,04,25,01,57,5.60
2023,04,25,02,02,5.60
2023,04,25,02,07,5.60
2023,04,25,02,12,5.50
2023,04,25,02,17,5.40
2023,04,25,02,22,5.30
2023,04,25,02,27,5.30
2023,04,25,02,32,5.20
2023,04,25,02,37,5.10
2023,04,25,02,42,5.10
2023,04,25,02,47,4.90
2023,04,25,02,52,4.90
2023,04,25,02,57,4.90
2023,04,25,03,02,4.80
2023,04,25,03,07,4.70
2023,04,25,03,12,4.70
2023,04,25,03,17,4.60
2023,04,25,03,22,4.50
2023,04,25,03,27,4.50
2023,04,25,03,32,4.40
2023,04,25,03,37,4.40
2023,04,25,03,42,4.40
2023,04,25,03,47,4.30
2023,04,25,03,52,4.30
2023,04,25,03,57,4.30
2023,04,25,04,02,4.30
2023,04,25,04,07,4.30
2023,04,25,04,12,4.20
2023,04,25,04,17,4.30
2023,04,25,04,22,4.20
2023,04,25,04,27,4.10
2023,04,25,04,32,4.10
2023,04,25,04,37,4.00
2023,04,25,04,42,4.00
2023,04,25,04,47,4.00
2023,04,25,04,52,4.00
2023,04,25,04,57,3.90
2023,04,25,05,02,3.90
2023,04,25,05,07,3.90
2023,04,25,05,12,3.80
2023,04,25,05,17,3.80
2023,04,25,05,22,3.70
2023,04,25,05,27,3.70
2023,04,25,05,32,3.70
2023,04,25,05,37,3.60
2023,04,25,05,42,3.50
2023,04,25,05,47,3.60
2023,04,25,05,52,3.50
2023,04,25,05,57,3.60
2023,04,25,06,02,3.60
2023,04,25,06,07,3.60
2023,04,25,06,12,3.70
2023,04,25,06,17,3.70
2023,04,25,06,22,3.80
2023,04,25,06,27,3.90
2023,04,25,06,32,4.00
2023,04,25,06,37,4.10
2023,04,25,06,42,4.10
2023,04,25,06,47,4.20
2023,04,25,06,52,4.30
2023,04,25,06,57,4.40
2023,04,25,07,02,4.50
2023,04,25,07,07,4.60
2023,04,25,07,12,4.70
2023,04,25,07,17,4.70
2023,04,25,07,22,4.80
2023,04,25,07,27,4.90
2023,04,25,07,32,5.00
2023,04,25,07,37,5.10
2023,04,25,07,42,5.20
2023,04,25,07,47,5.30
2023,04,25,07,52,5.50
2023,04,25,08,02,5.80
2023,04,25,08,07,6.10
2023,04,25,08,12,6.40
2023,04,25,08,17,6.70
2023,04,25,08,22,6.90
2023,04,25,08,27,7.10
2023,04,25,08,32,7.40
2023,04,25,08,37,7.50
2023,04,25,08,42,7.60
2023,04,25,08,47,7.70
2023,04,25,08,52,7.80
2023,04,25,08,57,7.90
2023,04,25,09,02,7.90
2023,04,25,09,07,8.00
2023,04,25,09,12,8.00
2023,04,25,09,17,8.10
2023,04,25,09,22,8.40
2023,04,25,09,27,8.40
2023,04,25,09,32,8.50
2023,04,25,09,37,8.60
2023,04,25,09,42,8.80
2023,04,25,09,47,9.30
2023,04,25,09,52,9.00
2023,04,25,09,57,9.10
2023,04,25,10,02,9.10
2023,04,25,10,07,9.10
2023,04,25,10,12,9.10
2023,04,25,10,17,9.20
2023,04,25,10,22,9.20
2023,04,25,10,32,9.50
2023,04,25,10,37,9.50
2023,04,25,10,42,9.50
2023,04,25,10,47,9.60
2023,04,25,10,52,9.80
2023,04,25,10,57,9.90
2023,04,25,11,02,9.90
2023,04,25,11,07,10.00
2023,04,25,11,12,10.10
2023,04,25,11,17,10.20
2023,04,25,11,22,10.30
2023,04,25,11,27,10.40
2023,04,25,11,32,10.50
2023,04,25,11,37,10.60
2023,04,25,11,42,10.60
2023,04,25,11,47,10.70
2023,04,25,11,52,10.80
2023,04,25,11,57,10.80
2023,04,25,12,02,11.00
2023,04,25,12,07,11.10
2023,04,25,12,12,11.10
2023,04,25,12,17,11.10
2023,04,25,12,22,11.20
2023,04,25,12,27,11.20
2023,04,25,12,32,11.30
2023,04,25,12,37,11.40
2023,04,25,12,42,11.50
2023,04,25,12,47,11.50
2023,04,25,12,52,11.40
2023,04,25,12,57,11.50
2023,04,25,13,02,11.50
2023,04,25,13,07,11.70
2023,04,25,13,12,11.70
2023,04,25,13,17,11.80
2023,04,25,13,22,11.80
2023,04,25,13,27,11.80
2023,04,25,13,32,11.80
2023,04,25,13,37,11.90
2023,04,25,13,42,11.90
2023,04,25,13,47,12.00
2023,04,25,13,52,11.90
2023,04,25,13,57,11.90
2023,04,25,14,02,11.90
2023,04,25,14,07,12.00
2023,04,25,14,12,11.90
2023,04,25,14,17,11.90
2023,04,25,14,22,12.00
2023,04,25,14,27,12.10
2023,04,25,14,32,12.20
2023,04,25,14,37,12.20
2023,04,25,14,42,12.30
2023,04,25,14,47,12.50
2023,04,25,14,52,12.60
2023,04,25,14,57,12.70
2023,04,25,15,02,12.70
2023,04,25,15,07,12.90
2023,04,25,15,12,12.80
2023,04,25,15,17,12.90
2023,04,25,15,22,13.00
2023,04,25,15,27,13.10
2023,04,25,15,32,13.10
2023,04,25,15,37,13.00
2023,04,25,15,42,13.10
2023,04,25,15,47,13.30
2023,04,25,15,52,13.30
2023,04,25,15,57,13.40
2023,04,25,16,02,13.50
2023,04,25,16,07,13.50
2023,04,25,16,12,13.50
2023,04,25,16,17,13.50
2023,04,25,16,22,13.40
2023,04,25,16,27,13.40
2023,04,25,16,32,13.40
2023,04,25,16,37,13.30
2023,04,25,16,42,13.30
2023,04,25,16,47,13.40
2023,04,25,16,52,13.40
2023,04,25,16,57,13.30
2023,04,25,17,02,13.20
2023,04,25,17,07,13.20
2023,04,25,17,12,13.10
2023,04,25,17,17,13.20
2023,04,25,17,22,13.20
2023,04,25,17,27,13.20
2023,04,25,17,32,13.20
2023,04,25,17,37,13.30
2023,04,25,17,42,13.20
2023,04,25,17,47,13.10
2023,04,25,17,52,13.00
2023,04,25,17,57,13.00
2023,04,25,18,02,13.00
2023,04,25,18,07,12.90
2023,04,25,18,12,12.90
2023,04,25,18,17,12.90
2023,04,25,18,22,12.80
2023,04,25,18,27,12.70
2023,04,25,18,32,12.60
2023,04,25,18,37,12.50
2023,04,25,18,42,12.40
2023,04,25,18,47,12.30
2023,04,25,18,52,12.20
2023,04,25,18,57,12.10
2023,04,25,19,02,12.10
2023,04,25,19,07,12.10
2023,04,25,19,12,12.00
2023,04,25,19,17,11.90
2023,04,25,19,22,11.80
2023,04,25,19,27,11.70
2023,04,25,19,32,11.60
2023,04,25,19,37,11.40
2023,04,25,19,42,11.30
2023,04,25,19,47,11.20
2023,04,25,19,52,11.10
2023,04,25,19,57,11.00
2023,04,25,20,02,10.90
2023,04,25,20,07,10.80
2023,04,25,20,12,10.70
2023,04,25,20,17,10.70
2023,04,25,20,22,10.60
2023,04,25,20,27,10.50
2023,04,25,20,32,10.30
2023,04,25,20,37,10.20
2023,04,25,20,42,10.10
2023,04,25,20,47,10.00
2023,04,25,20,52,9.90
2023,04,25,20,57,9.90
2023,04,25,21,02,9.80
2023,04,25,21,07,9.70
2023,04,25,21,12,9.50
2023,04,25,21,17,9.50
2023,04,25,21,22,9.40
2023,04,25,21,27,9.40
2023,04,25,21,32,9.40
2023,04,25,21,37,9.50
2023,04,25,21,42,9.50
2023,04,25,21,47,9.50
2023,04,25,21,52,9.40
2023,04,25,21,57,9.30
2023,04,25,22,02,9.30
2023,04,25,22,07,9.10
2023,04,25,22,12,8.90
2023,04,25,22,17,8.80
2023,04,25,22,22,8.70
2023,04,25,22,27,8.60
2023,04,25,22,32,8.60
2023,04,25,22,37,8.50
2023,04,25,22,42,8.40
2023,04,25,22,47,8.30
2023,04,25,22,52,8.30
2023,04,25,22,57,8.20
2023,04,25,23,02,8.10
2023,04,25,23,07,8.00
2023,04,25,23,12,7.90
2023,04,25,23,17,7.90
2023,04,25,23,22,7.80
2023,04,25,23,27,7.80
2023,04,25,23,32,7.70
2023,04,25,23,37,7.70
2023,04,25,23,42,7.60
2023,04,25,23,47,7.50
2023,04,25,23,52,7.50
2023,04,25,23,57,7.40
